Location: Newark
(49.8969°N, 3.3422°E)
Time: 06:27:16
(UTC+00:00)

A-11 Canister half - Pass Details

Date: 02 February 2020
Orbit: 1517 x 1683 km, 47.2° (Epoch: 27 February)

Event Time Altitude Azimuth Distance (km) Brightness Sun altitude
Rises 03:55:37 0° 288° (WNW) 4,683 - -32.8°
Reaches altitude 10° 03:59:06 10° 279° (W) 3,688 - -32.3°
Maximum altitude 04:06:46 30° 222° (SW) 2,436 - -31.1°
Exits shadow 04:09:37 26° 193° (SSW) 2,646 10.0 -30.6°
Drops below altitude 10° 04:14:26 10° 166° (SSE) 3,686 11.0 -29.9°
Sets 04:17:56 0° 156° (SSE) 4,680 11.7 -29.3°
